| time (UTC) | temp F | wind direction | speed MPH | gust MPH | rain 1hr in | rain 24hr in | rain mn in | humidity % | barometer mb |
| 20260503031550 | 62 | 121 | 1.0 | 6.0 | 0.00 | 0.03 | 0.03 | 82 | 1013.2 |
| 20260503030055 | 63 | 109 | 2.0 | 8.0 | 0.00 | 0.03 | 0.03 | 79 | 1013.2 |
| 20260503024600 | 64 | 109 | 1.0 | 7.0 | 0.00 | 0.03 | 0.03 | 79 | 1013.0 |
| 20260503023057 | 64 | 112 | 1.0 | 8.0 | 0.00 | 0.03 | 0.03 | 79 | 1012.9 |
| 20260503021558 | 65 | 0 | 0.0 | 4.0 | 0.00 | 0.03 | 0.03 | 80 | 1012.5 |
| 20260503020056 | 66 | 0 | 0.0 | 2.0 | 0.00 | 0.03 | 0.03 | 78 | 1012.3 |
| 20260503014621 | 66 | 0 | 0.0 | 2.0 | 0.00 | 0.03 | 0.03 | 76 | 1012.0 |
| 20260503013050 | 67 | 0 | 1.0 | 3.0 | 0.00 | 0.03 | 0.03 | 75 | 1012.0 |
| 20260503011601 | 67 | 189 | 0.0 | 3.0 | 0.00 | 0.03 | 0.03 | 76 | 1012.1 |
| 20260503010058 | 67 | 0 | 0.0 | 3.0 | 0.00 | 0.03 | 0.03 | 75 | 1012.0 |
| 20260503004600 | 67 | 0 | 0.0 | 2.0 | 0.00 | 0.03 | 0.03 | 76 | 1012.1 |
| 20260503003100 | 67 | 0 | 0.0 | 1.0 | 0.00 | 0.03 | 0.03 | 75 | 1012.1 |
| 20260503001554 | 66 | 0 | 0.0 | 2.0 | 0.00 | 0.03 | 0.03 | 75 | 1012.0 |
| 20260503000052 | 66 | 0 | 0.0 | 3.0 | 0.00 | 0.03 | 0.03 | 77 | 1012.1 |
| 20260502234555 | 66 | 0 | 0.0 | 1.0 | 0.00 | 0.03 | 0.03 | 76 | 1012.0 |
| 20260502233053 | 66 | 0 | 0.0 | 2.0 | 0.00 | 0.03 | 0.03 | 75 | 1012.0 |
| 20260502231553 | 66 | 0 | 0.0 | 3.0 | 0.00 | 0.03 | 0.03 | 75 | 1012.2 |
| 20260502230057 | 66 | 0 | 0.0 | 4.0 | 0.00 | 0.03 | 0.03 | 75 | 1012.3 |
| 20260502224608 | 65 | 0 | 0.0 | 5.0 | 0.00 | 0.03 | 0.03 | 76 | 1012.5 |
| 20260502223056 | 65 | 0 | 1.0 | 6.0 | 0.00 | 0.03 | 0.03 | 77 | 1012.9 |
| 20260502221552 | 64 | 0 | 1.0 | 4.0 | 0.00 | 0.03 | 0.03 | 74 | 1013.2 |
| 20260502220059 | 63 | 348 | 1.0 | 4.0 | 0.00 | 0.03 | 0.03 | 76 | 1013.4 |
| 20260502214553 | 64 | 315 | 0.0 | 4.0 | 0.00 | 0.03 | 0.03 | 76 | 1013.5 |
| 20260502213103 | 62 | 13 | 0.0 | 3.0 | 0.00 | 0.03 | 0.03 | 80 | 1013.6 |
| 20260502211617 | 62 | 325 | 0.0 | 5.0 | 0.00 | 0.03 | 0.03 | 78 | 1013.7 |
| 20260502210105 | 63 | 0 | 0.0 | 10.0 | 0.00 | 0.03 | 0.03 | 77 | 1014.0 |
| 20260502204550 | 61 | 265 | 1.0 | 6.0 | 0.00 | 0.03 | 0.03 | 83 | 1014.1 |
| 20260502203057 | 59 | 286 | 1.0 | 4.0 | 0.00 | 0.03 | 0.03 | 85 | 1014.3 |
| 20260502201559 | 59 | 18 | 1.0 | 3.0 | 0.00 | 0.03 | 0.03 | 83 | 1014.7 |
| 20260502200049 | 59 | 319 | 0.0 | 3.0 | 0.00 | 0.03 | 0.03 | 84 | 1014.8 |
| 20260502194602 | 58 | 0 | 2.0 | 4.0 | 0.00 | 0.03 | 0.03 | 83 | 1014.9 |
| 20260502193052 | 56 | 231 | 2.0 | 6.0 | 0.00 | 0.03 | 0.03 | 86 | 1015.2 |
| 20260502191555 | 55 | 0 | 2.0 | 7.0 | 0.00 | 0.03 | 0.03 | 88 | 1015.2 |
| 20260502190057 | 54 | 0 | 0.0 | 1.0 | 0.00 | 0.03 | 0.03 | 90 | 1015.1 |
| 20260502184600 | 53 | 0 | 0.0 | 0.0 | 0.00 | 0.03 | 0.03 | 91 | 1014.9 |
| 20260502183108 | 52 | 0 | 0.0 | 0.0 | 0.00 | 0.03 | 0.03 | 92 | 1014.9 |
| 20260502181554 | 52 | 0 | 0.0 | 2.0 | 0.00 | 0.03 | 0.03 | 91 | 1015.3 |
| 20260502163057 | 48 | 0 | 0.0 | 0.0 | 0.00 | 0.03 | 0.03 | 96 | 1015.8 |
| 20260502161554 | 49 | 0 | 0.0 | 0.0 | 0.00 | 0.03 | 0.03 | 96 | 1015.8 |
| 20260502151602 | 48 | 0 | 0.0 | 1.0 | 0.00 | 0.03 | 0.03 | 97 | 1015.8 |
| 20260502123056 | 47 | 0 | 0.0 | 4.0 | 0.00 | 0.03 | 0.03 | 97 | 1015.9 |
| 20260502121551 | 47 | 260 | 0.0 | 6.0 | 0.00 | 0.03 | 0.03 | 97 | 1015.8 |
| 20260502114605 | 48 | 140 | 0.0 | 6.0 | 0.00 | 0.03 | 0.03 | 97 | 1015.5 |
| 20260502113057 | 48 | 0 | 0.0 | 0.0 | 0.00 | 0.03 | 0.03 | 97 | 1015.5 |
| 20260502111556 | 48 | 0 | 0.0 | 0.0 | 0.00 | 0.03 | 0.03 | 97 | 1015.3 |
| 20260502110053 | 48 | 0 | 0.0 | 4.0 | 0.00 | 0.03 | 0.03 | 97 | 1015.6 |
| 20260502104556 | 48 | 243 | 0.0 | 2.0 | 0.00 | 0.03 | 0.03 | 96 | 1015.5 |
| 20260502103053 | 48 | 0 | 0.0 | 1.0 | 0.00 | 0.03 | 0.03 | 96 | 1015.2 |
| 20260502101618 | 48 | 0 | 0.0 | 0.0 | 0.01 | 0.03 | 0.03 | 96 | 1015.5 |
| 20260502090107 | 49 | 0 | 0.0 | 2.0 | 0.02 | 0.02 | 0.02 | 94 | 1016.6 |
| 20260502070114 | 50 | 0 | 0.0 | 1.0 | 0.00 | 0.00 | 0.00 | 90 | 1016.8 |
| 20260502064556 | 51 | 168 | 0.0 | 4.0 | 0.00 | 0.00 | 0.00 | 91 | 1016.7 |
| 20260502063059 | 52 | 0 | 0.0 | 1.0 | 0.00 | 0.00 | 0.00 | 89 | 1016.5 |
| 20260502061602 | 52 | 190 | 0.0 | 4.0 | 0.00 | 0.00 | 0.00 | 88 | 1016.6 |
| 20260502060053 | 53 | 0 | 0.0 | 3.0 | 0.00 | 0.00 | 0.00 | 86 | 1016.6 |
| 20260502054556 | 54 | 0 | 1.0 | 4.0 | 0.00 | 0.00 | 0.00 | 84 | 1016.4 |
| 20260502053056 | 55 | 227 | 0.0 | 2.0 | 0.00 | 0.00 | 0.00 | 83 | 1016.5 |
| 20260502051620 | 56 | 0 | 0.0 | 2.0 | 0.00 | 0.00 | 0.00 | 83 | 1016.5 |
| 20260502050056 | 56 | 0 | 0.0 | 2.0 | 0.00 | 0.00 | 0.00 | 82 | 1016.4 |
| 20260502044555 | 57 | 0 | 0.0 | 6.0 | 0.00 | 0.00 | 0.00 | 79 | 1016.0 |
| 20260502043057 | 58 | 271 | 1.0 | 4.0 | 0.00 | 0.00 | 0.00 | 77 | 1015.9 |
| 20260502041554 | 59 | 0 | 0.0 | 3.0 | 0.00 | 0.00 | 0.00 | 76 | 1015.9 |
| 20260502040059 | 60 | 0 | 0.0 | 4.0 | 0.00 | 0.00 | 0.00 | 74 | 1015.9 |
| 20260502034554 | 61 | 0 | 0.0 | 2.0 | 0.00 | 0.00 | 0.00 | 73 | 1015.6 |
| 20260502033049 | 62 | 309 | 0.0 | 3.0 | 0.00 | 0.00 | 0.00 | 70 | 1015.3 |